Погода в Сортавале

Погода в Сортавале : погода сейчас, прогноз погоды и архив. Всё, что Вы хотите узнать о погоде в Сортавале!

Хотите узнать прогноз погоды в Сортавале? Тогда Вам сюда: Погода в Сортавале

Поиск расширенной информации на нашем сайте:

Другие новости

Новости СМИ2

Главная страница сайта

Новости сайта

03.07.2017

Напоминаем, что на нашем специализированном сайте Метеоцентр.Азия вы можете получить высокодетализированные автоматические прогнозы погоды по пунктам России, СНГ и мира в авиационном формате (включающие направление и скорость ветра, видимость, явления погоды, количество и форму облачности, нижнюю и верхнюю границу облачности).


Погода в Сортавале - сегодня

Время (UTC), дата Ветер
(°,м/с) 
Видим.   Явления Облачность Т
(°С)
Тd
(°С)
f(%) Тe
(°С)
Pmin
(гПа)
dP
(гПа)
Po
(мм)
O2
(г/м3)
Тmin Tmax R s Состояние
почвы
09 10.10.18 290 (З) 20000 м  {ливн. осадки}  9/4 600 м кучево-дожд., средняя, верхняя 
[Cb cap|Ac trans|Ci sp]
+10.3 +7.4 82 +10  1009.2  4.5  755  292           
15 10.10.18 270 (З) 20000 м    3/0 верхняя 
[Ci fib]
+9.5 +4.1 69 +11  1017  4.1  761  296      0.3     
21 10.10.18 240 (ЮЗ) 40000 м    9/0 средняя, верхняя 
[Ac trans|Ci fib]
+3.8 +2 88 +5  1023.7  2.6  766  304           
00 11.10.18 290 (З) 50000 м    3/0 верхняя 
[Ci fib]
+2.9 +1.6 91 +4  1025.9  2.2  768  306           
03 11.10.18 270 (З) 4200 м  дымка  8/0 средняя, верхняя 
[Ac trans|Ci fib]
+1 +0 93 +2  1027.3  1.4  769  309  -0.2         
09 11.10.18 240 (ЮЗ) 20000 м    10/0 средняя 
[Ac und]
+8.2 +5.1 81 +9  1030.1  1.4  771  301           
15 11.10.18 тихо ()   20000 м    9/0 средняя 
[Ac trans]
+9.7 +6.4 80 +10  1029.7  -0.7  771  299           
03 12.10.18 230 (ЮЗ) 4800 м  слаб. морось  10/10 360 м 
[St]
+8.5 +7 90 +10  1028  -0.9  769  299  +3.7    0.1     
09 12.10.18 270 (З) 40000 м    10/10 300 м 
[St]
+10.3 +7.4 82 +10  1028.1  -0.1  769  298           
15 12.10.18 тихо ()   20000 м    3/3 1000 м верхняя 
[Sc|Ci fib]
+9.5 +6.9 84 +10  1026.5  -0.6  768  298           
18 12.10.18 360 (С) 20000 м    ясно 
+6.1 +4.9 92 +7  1025.3  -1.2  767  302    +12.3       
21 12.10.18 200 (Ю) 50000 м  туман поземный  10/0 верхняя 
[Cs]
+5 +4 93 +6  1025.1  -0.2  767  303           
03 13.10.18 тихо ()   10 км  туман поземный  10/10 360 м кучево-дожд. 
[Cb cap]
+7.9 +6.8 93 +8  1023.5  -1.1  766  299  +3.7         
21 13.10.18 тихо ()   0500 м  туман  ясно 
+6.5 +5.5 93 +7  1021.9  -0.2  765  300           
00 14.10.18 тихо ()   0300 м  туман  ясно 
+6.8 +5.7 93 +7  1021  -0.9  764  299           
09 14.10.18 220 (ЮЗ) 27000 м  {туман}  4/0 верхняя 
[Ci fib]
+16.6 +11.2 70 +19  1020.3  -0.1  764  288           
15 14.10.18 230 (ЮЗ) 20000 м    ясно 
+16.8 +8.8 59 +18  1019.9  0.1  763  288           
21 14.10.18 230 (ЮЗ) 9000 м  дымка  4/0 верхняя 
[Ci fib]
+10.5 +8.1 85 +12  1020.6  0.5  764  295           
03 15.10.18 тихо ()   0300 м  туман  3/0 верхняя 
[Ci fib]
+5.5 +4.5 93 +6  1019.3  -1  763  301  +4.6         
09 15.10.18 180 (Ю) 20000 м  {туман}  6/3 1000 м верхняя 
[Sc|Ci fib]
+13.4 +9.2 76 +13  1017.9  -0.7  762  291           
15 15.10.18 тихо ()   15000 м    ясно 
+10 +7.6 85 +10  1017.1  -0.1  761  295           
18 15.10.18 260 (З) 28000 м    ясно 
+11.7 +7.4 75 +13  1017.5  0.4  761  293    +15.2       
21 15.10.18 230 (ЮЗ) 50000 м    ясно 
+11.1 +7.5 78 +12  1016.9  -0.6  761  293           
09 16.10.18 250 (З) 20000 м    9/1 1000 м верхняя 
[Sc|Ci fib]
+13.1 +8 71 +13  1013.5  0.3  758  290           
21 16.10.18 230 (ЮЗ) 15000 м  туман поземный  9/3 1000 м средняя 
[Sc|Ac trans]
+5 +3.7 91 +6  1021.4  1.7  764  302           
Время (UTC), дата Ветер
(°,м/с) 
Видим.   Явления Облачность Т
(°С)
Тd
(°С)
f(%) Тe
(°С)
Pmin
(гПа)
dP
(гПа)
Po
(мм)
O2
(г/м3)
Тmin Tmax R s Состояние
почвы

Для получения пояснительной информации подведите курсор к названию столбца.

ПОГОДА в Сортавале - архив

Всё, что Вы хотите узнать о погоде в Сортавале - удобно и подробно!

Выберите нужную дату (начиная с 1 января 2015* года) и нажмите кнопку "Найти".
Будут отображены архивные сводки погоды по пункту Сортавала, начиная с указанной даты.


Отображать данные в формате CSV (для использования в таблицах Excel)


Внимание! Наш архив погоды предназначен исключительно для личного некоммерческого использования в познавательных целях. Если Вам необходимы официальные справки о состоянии погоды (для производственных, юридических, коммерческих и т.п. целей), обращайтесь в органы Росгидромета.

*Примечание: данная дата относится к архиву по метеостанциям СССР (Россия, СНГ, Балтия).
Архив по метеостанциям Зарубежной Европы и Азии (кроме Китая) хранится 10 дней, по другим регионам земного шара (Китай, Африка, Америка, Австралия, Океания) - 1 день.

Сортавала - район местоположения метеостанции


Название, широта, долгота, высота метеостанции:
Сортавала 61.7°ш. 30.7°д. 19 м над ур. моря [Российская Федерация]

Дополнительная информация

В oтличие oт бoльшинства пoгoдных сайтoв мы публикуем пoдрoбную метеoинфoрмацию в детальнoм прoфессиoнальнoм фoрмате.

Характеристики температуры и влажнoсти вoздуха измеряются на высoте 2 м в тени вдали oт зданий и деревьев.
Скoрoсть ветра измеряется на высoте 10 м (на урoвне рoста челoвека скoрoсть ветра ниже в 1.5-2 раза). Если метеoстанция нахoдится в гoрoде или в лесу, тo скoрoсть ветра занижена на 2-4 м/с пo сравнению с oткрытым местoм. Скoрoсть ветра над акватoриями крупных рек и oзёр, а также на вершинах хoлмoв на 2-5 м/с выше, чем в oбычных услoвиях.
Атмoсфернoе давление в разных тoчках местнoсти мoжет значительнo oтличаться oт давления на метеoстанции, в зависимoсти oт услoвий рельефа (при пoдъёме на 10 м давление пoнижается примернo на 1 мм рт.ст.).